Thedford, NE

12:19 PM CST on November 24, 2017 (GMT -0600)
Thedford

Weather History for KTIF - March, 2014

Change the Weather History Date:

Sunday, March 9, 2014

  Actual Average (KANW) Record (KANW)
Temperature  
Mean Temperature 56 °F -  
Max Temperature 73 °F 38 °F 71 °F (2014)
Min Temperature 39 °F 19 °F -5 °F (1998)
Degree Days  
Heating Degree Days 9    
Growing Degree Days 6 (Base 50)    
Moisture  
Dew Point 27 °F    
Average Humidity 39    
Maximum Humidity 67    
Minimum Humidity 13    
Precipitation  
Precipitation 0.00 in - - ()
Sea Level Pressure  
Sea Level Pressure 29.94 in    
Wind  
Wind Speed 11 mph (West)    
Max Wind Speed 22 mph    
Max Gust Speed 31 mph    
Visibility 10 miles    
Events      
Averages and records for this station are not official NWS values.
T = Trace of Precipitation, MM = Missing Value Source: NWS Daily Summary

Daily Weather History Graph

Daily Weather History Graph

Search for Another Location

Airport or City:

Trip Planner

Search our weather history database for the weather conditions in past years. The results will help you decide how hot, cold, wet, or windy it might be!

Date:

Astronomy

Mar. 09, 2014 Rise Set
Actual Time 8:04 AM CDT 7:42 PM CDT
Civil Twilight 7:36 AM CDT 8:09 PM CDT
Nautical Twilight 7:04 AM CDT 8:42 PM CDT
Astronomical Twilight 6:31 AM CDT 9:14 PM CDT
Moon 1:32 PM CDT (3/9) 3:35 AM CDT (3/9)
Length of Visible Light 12h 33m
Length of Day
11h 37m
First Quarter, 61% of the Moon is Illuminated
Mar 9
First Quarter
Mar 16
Full
Mar 23
Last Quarter
Mar 30
New
Apr 7
First Quarter

Hourly Weather History & Observations

Time (CDT) Temp. Windchill Dew Point Humidity Pressure Visibility Wind Dir Wind Speed Gust Speed Precip Events Conditions
12:15 AM 39.9 °F 33.9 °F 28.8 °F 64% 30.13 in 10.0 mi SSW 9.2 mph - N/A   Clear
12:35 AM 40.1 °F 34.7 °F 29.1 °F 65% 30.12 in 10.0 mi SSW 8.1 mph - N/A   Clear
12:55 AM 40.1 °F 34.7 °F 29.1 °F 65% 30.10 in 10.0 mi SSW 8.1 mph - N/A   Clear
1:15 AM 42.4 °F 37.5 °F 29.7 °F 61% 30.10 in 10.0 mi SW 8.1 mph - N/A   Clear
1:35 AM 43.0 °F 37.2 °F 29.3 °F 59% 30.08 in 10.0 mi SW 10.4 mph - N/A   Clear
1:55 AM 44.1 °F 37.7 °F 29.1 °F 56% 30.07 in 10.0 mi SSW 12.7 mph - N/A   Clear
3:15 AM 43.7 °F 36.3 °F 29.1 °F 57% 30.05 in 10.0 mi SW 16.1 mph - N/A   Clear
3:35 AM 42.8 °F 36.6 °F 29.1 °F 58% 30.04 in 10.0 mi SW 11.5 mph - N/A   Clear
3:55 AM 42.1 °F 37.1 °F 29.3 °F 61% 30.03 in 10.0 mi SW 8.1 mph - N/A   Clear
4:15 AM 41.9 °F 38.2 °F 29.1 °F 61% 30.02 in 10.0 mi SW 5.8 mph - N/A   Clear
4:35 AM 41.5 °F 38.6 °F 29.1 °F 61% 30.02 in 10.0 mi WSW 4.6 mph - N/A   Clear
4:55 AM 42.8 °F 38.6 °F 29.3 °F 59% 30.02 in 10.0 mi West 6.9 mph - N/A   Clear
5:15 AM 43.2 °F 37.4 °F 29.3 °F 58% 30.03 in 10.0 mi WSW 10.4 mph - N/A   Clear
5:35 AM 41.7 °F 36.1 °F 29.3 °F 61% 30.02 in 10.0 mi WSW 9.2 mph - N/A   Clear
5:55 AM 42.1 °F 35.2 °F 29.7 °F 61% 30.01 in 10.0 mi SW 12.7 mph - N/A   Clear
6:15 AM 41.4 °F 35.2 °F 29.3 °F 62% 30.01 in 10.0 mi SW 10.4 mph - N/A   Clear
6:35 AM 40.5 °F 35.1 °F 29.3 °F 64% 30.02 in 10.0 mi WSW 8.1 mph - N/A   Clear
6:55 AM 39.4 °F 36.1 °F 29.1 °F 67% 30.01 in 10.0 mi SW 4.6 mph - N/A   Clear
7:15 AM 40.3 °F 33.9 °F 29.3 °F 65% 30.00 in 10.0 mi SW 10.4 mph - N/A   Clear
7:35 AM 40.5 °F 33.6 °F 28.9 °F 64% 29.99 in 10.0 mi SW 11.5 mph - N/A   Clear
7:55 AM 40.1 °F 35.3 °F 28.4 °F 63% 29.98 in 10.0 mi SW 6.9 mph - N/A   Clear
8:15 AM 40.6 °F 34.8 °F 28.2 °F 61% 29.98 in 10.0 mi SW 9.2 mph - N/A   Clear
8:35 AM 41.0 °F 35.2 °F 27.9 °F 60% 29.98 in 10.0 mi WSW 9.2 mph - N/A   Clear
8:55 AM 42.8 °F 37.5 °F 27.9 °F 56% 29.97 in 10.0 mi WSW 9.2 mph - N/A   Clear
9:15 AM 44.6 °F 37.8 °F 27.5 °F 51% 29.96 in 10.0 mi WSW 15.0 mph 19.6 mph N/A   Clear
9:35 AM 46.6 °F - 27.0 °F 46% 29.96 in 10.0 mi West 13.8 mph 21.9 mph N/A   Clear
9:55 AM 48.7 °F - 26.4 °F 42% 29.96 in 10.0 mi West 18.4 mph 23.0 mph N/A   Clear
10:15 AM 51.3 °F - 25.3 °F 37% 29.96 in 10.0 mi West 21.9 mph 26.5 mph N/A   Clear
10:35 AM 54.1 °F - 24.4 °F 32% 29.96 in 10.0 mi West 18.4 mph 24.2 mph N/A   Clear
10:55 AM 57.2 °F - 23.4 °F 27% 29.95 in 10.0 mi West 17.3 mph 26.5 mph N/A   Clear
11:15 AM 59.9 °F - 22.5 °F 24% 29.95 in 10.0 mi West 21.9 mph 28.8 mph N/A   Clear
11:35 AM 61.7 °F - 21.6 °F 21% 29.95 in 10.0 mi West 18.4 mph 28.8 mph N/A   Clear
11:55 AM 63.1 °F - 21.4 °F 20% 29.94 in 10.0 mi West 19.6 mph 27.6 mph N/A   Clear
12:15 PM 64.6 °F - 21.2 °F 19% 29.94 in 10.0 mi WNW 21.9 mph 27.6 mph N/A   Clear
12:35 PM 65.1 °F - 21.2 °F 19% 29.94 in 10.0 mi WNW 21.9 mph 31.1 mph N/A   Clear
12:55 PM 66.2 °F - 21.4 °F 18% 29.94 in 10.0 mi WNW 18.4 mph - N/A   Clear
1:15 PM 67.1 °F - 21.6 °F 18% 29.93 in 10.0 mi West 19.6 mph 24.2 mph N/A   Clear
1:35 PM 68.0 °F - 21.2 °F 17% 29.92 in 10.0 mi WNW 17.3 mph 24.2 mph N/A   Clear
1:55 PM 68.5 °F - 21.0 °F 16% 29.91 in 10.0 mi WNW 16.1 mph - N/A   Clear
2:15 PM 70.0 °F - 20.8 °F 16% 29.91 in 10.0 mi WNW 11.5 mph 20.7 mph N/A   Clear
2:35 PM 70.5 °F - 20.8 °F 15% 29.90 in 10.0 mi WNW 16.1 mph - N/A   Clear
2:55 PM 71.2 °F - 19.2 °F 14% 29.89 in 10.0 mi WNW 15.0 mph 24.2 mph N/A   Clear
3:15 PM 71.2 °F - 20.3 °F 15% 29.89 in 10.0 mi West 16.1 mph 24.2 mph N/A   Clear
3:35 PM 71.8 °F - 19.9 °F 14% 29.88 in 10.0 mi WNW 13.8 mph 18.4 mph N/A   Clear
3:55 PM 72.0 °F - 18.1 °F 13% 29.87 in 10.0 mi West 12.7 mph 20.7 mph N/A   Clear
4:15 PM 72.3 °F - 19.4 °F 14% 29.87 in 10.0 mi West 9.2 mph 17.3 mph N/A   Clear
4:35 PM 72.9 °F - 18.9 °F 13% 29.87 in 10.0 mi West 11.5 mph 16.1 mph N/A   Clear
4:55 PM 72.9 °F - 19.8 °F 13% 29.86 in 10.0 mi West 10.4 mph - N/A   Clear
5:15 PM 73.6 °F - 20.5 °F 14% 29.86 in 10.0 mi West 12.7 mph 16.1 mph N/A   Clear
5:35 PM 71.8 °F - 21.6 °F 15% 29.86 in 10.0 mi West 9.2 mph - N/A   Clear
5:55 PM 70.2 °F - 24.3 °F 18% 29.86 in 10.0 mi West 5.8 mph - N/A   Clear
6:15 PM 69.6 °F - 25.0 °F 19% 29.86 in 10.0 mi West 6.9 mph - N/A   Clear
6:35 PM 68.0 °F - 26.2 °F 21% 29.86 in 10.0 mi West 5.8 mph - N/A   Clear
6:55 PM 65.8 °F - 27.0 °F 23% 29.86 in 10.0 mi WSW 6.9 mph - N/A   Clear
7:15 PM 63.9 °F - 27.5 °F 25% 29.85 in 10.0 mi WSW 8.1 mph - N/A   Clear
7:35 PM 60.6 °F - 28.9 °F 30% 29.86 in 10.0 mi WSW 5.8 mph - N/A   Clear
7:55 PM 59.5 °F - 28.4 °F 31% 29.86 in 10.0 mi Calm Calm - N/A   Clear
8:15 PM 57.9 °F - 28.6 °F 33% 29.86 in 10.0 mi West 5.8 mph - N/A   Clear
8:35 PM 55.9 °F - 29.8 °F 37% 29.86 in 10.0 mi West 5.8 mph - N/A   Clear
8:55 PM 54.0 °F - 30.9 °F 41% 29.87 in 10.0 mi SSW 6.9 mph - N/A   Clear
9:15 PM 54.7 °F - 30.7 °F 40% 29.87 in 10.0 mi West 5.8 mph - N/A   Clear
9:35 PM 54.1 °F - 31.6 °F 42% 29.87 in 10.0 mi WNW 4.6 mph - N/A   Clear
9:55 PM 51.6 °F - 32.0 °F 47% 29.87 in 10.0 mi West 5.8 mph - N/A   Clear
10:15 PM 58.6 °F - 29.1 °F 33% 29.88 in 10.0 mi West 11.5 mph 17.3 mph N/A   Clear
10:35 PM 56.8 °F - 29.8 °F 36% 29.89 in 10.0 mi West 9.2 mph - N/A   Clear
10:55 PM 54.5 °F - 30.2 °F 39% 29.89 in 10.0 mi WNW 10.4 mph - N/A   Clear
11:15 PM 54.0 °F - 30.2 °F 40% 29.89 in 10.0 mi WNW 6.9 mph - N/A   Clear
11:35 PM 52.2 °F - 30.9 °F 44% 29.89 in 10.0 mi West 10.4 mph - N/A   Clear
11:55 PM 50.0 °F - 31.1 °F 48% 29.89 in 10.0 mi West 9.2 mph - N/A   Clear
12:15 AM 51.4 °F - 30.7 °F 45% 29.89 in 10.0 mi WNW 11.5 mph - N/A   Clear
12:35 AM 47.7 °F - 31.1 °F 53% 29.89 in 10.0 mi West 8.1 mph - N/A   Clear
12:55 AM 48.7 °F - 31.1 °F 51% 29.89 in 10.0 mi WNW 8.1 mph - N/A   Clear